Belvidere, Illinois, United States (61008)
Lat: 42.26N, Lon: 88.84W
Wx Zone: ILZ004
Local Info
Past Weather Observations for Saturday, July 23, 2016

NOTE: This archive is for the closest National Weather Service station to Belvidere. Information may differ from the station used for current weather conditions.

Click here for Long-term Archive

Time Weather Temperature Dewpoint Humidity Pressure Winds Precip Visibility
23:54
Overcast
72°F / 22°C 70°F / 21°C 94% 29.95 in
(1014 mb)
SSE 10.4 mph
(SSE 17 kph)
- 10SM
22:54
Overcast
72°F / 22°C 70°F / 21°C 94% 29.95 in
(1014 mb)
SE 10.4 mph
(SE 17 kph)
- 10SM
21:54
Overcast
72°F / 22°C 70°F / 21°C 94% 29.95 in
(1014 mb)
E 4.6 mph
(E 7 kph)
0.03 in
(0.76 mm)
10SM
20:54
Overcast
Thunder Storms
73°F / 23°C 70°F / 21°C 89% 29.95 in
(1014 mb)
SE 3.5 mph
(SE 6 kph)
0.09 in
(2.29 mm)
7SM
19:54
Overcast
Thunder Storms
72°F / 22°C 70°F / 21°C 94% 29.95 in
(1014 mb)
S 15 mph
(S 24 kph)
0.43 in
(10.92 mm)
7SM
19:52
Overcast
Thunder Storms
72°F / 22°C 70°F / 21°C 94% 29.95 in
(1014 mb)
S 16.1 mph
(S 26 kph)
0.42 in
(10.67 mm)
3SM
19:40
Overcast
Thunder Storms
73°F / 23°C 72°F / 22°C 94% 29.98 in
(1015 mb)
S 16.1 mph
(S 26 kph)
0.24 in
(6.10 mm)
2SM
18:54
Overcast
Thunder Storms
75°F / 24°C 72°F / 22°C 89% 29.98 in
(1015 mb)
N 13.8 mph
(N 22 kph)
0.01 in
(0.25 mm)
10SM
18:42
Overcast
Thunder Storms
75°F / 24°C 72°F / 22°C 89% 29.98 in
(1015 mb)
NNE 10.4 mph
(NNE 17 kph)
0.00 in
(0.00 mm)
10SM
18:20
Overcast
Thunder Storms
73°F / 23°C 72°F / 22°C 94% 29.95 in
(1014 mb)
NNW 5.8 mph
(NNW 9 kph)
- 10SM
17:54
Overcast
73°F / 23°C 72°F / 22°C 94% 29.92 in
(1013 mb)
SE 8.1 mph
(SE 13 kph)
0.00 in
(0.00 mm)
10SM
17:35
Overcast
73°F / 23°C 72°F / 22°C 94% 29.92 in
(1013 mb)
SE 9.2 mph
(SE 15 kph)
0.00 in
(0.00 mm)
10SM
16:54
Overcast
Thunder Storms
73°F / 23°C 70°F / 21°C 89% 29.95 in
(1014 mb)
E 10.4 mph
(E 17 kph)
0.93 in
(23.62 mm)
6SM
16:46
Overcast
Thunder Storms
73°F / 23°C 70°F / 21°C 89% 29.95 in
(1014 mb)
ENE 13.8 mph
(ENE 22 kph)
0.93 in
(23.62 mm)
2 1/2SM
16:42
Overcast
Thunder Storms
73°F / 23°C 72°F / 22°C 94% 29.98 in
(1015 mb)
ENE 15 mph
(ENE 24 kph)
0.76 in
(19.30 mm)
1 1/4SM
16:23
Overcast
Thunder Storms
75°F / 24°C 73°F / 23°C 94% 29.98 in
(1015 mb)
SE 11.5 mph
(SE 19 kph)
0.61 in
(15.49 mm)
3SM
16:15
Overcast
Thunder Storms
75°F / 24°C 72°F / 22°C 89% 29.98 in
(1015 mb)
NE 16.1 mph
(NE 26 kph)
0.33 in
(8.38 mm)
1SM
16:08
Overcast
Thunder Storms
77°F / 25°C 72°F / 22°C 83% 29.95 in
(1014 mb)
E 16.1 mph
(E 26 kph)
0.00 in
(0.00 mm)
1 1/2SM
15:54
Overcast
Thunder Storms
79°F / 26°C 72°F / 22°C 79% 29.98 in
(1015 mb)
E 9.2 mph
(E 15 kph)
0.15 in
(3.81 mm)
6SM
15:25
Overcast
Thunder Storms
81°F / 27°C 72°F / 22°C 74% 29.95 in
(1014 mb)
N 10.4 mph
(N 17 kph)
- 10SM
15:05
Overcast
81°F / 27°C 72°F / 22°C 74% 29.95 in
(1014 mb)
N 20.7 mph
(N 33 kph)
- 10SM
14:54
Overcast
86°F / 30°C 77°F / 25°C 75% 29.95 in
(1014 mb)
NNW 9.2 mph
(NNW 15 kph)
- 10SM
13:54
Overcast
86°F / 30°C 77°F / 25°C 75% 29.98 in
(1015 mb)
Calm - 10SM
12:54
Overcast
88°F / 31°C 79°F / 26°C 75% 29.98 in
(1015 mb)
S 8.1 mph
(S 13 kph)
- 10SM
12:08
Overcast
86°F / 30°C 77°F / 25°C 75% 30.01 in
(1016 mb)
SW 6.9 mph
(SW 11 kph)
- 10SM
11:54
Overcast
86°F / 30°C 77°F / 25°C 75% 30.01 in
(1016 mb)
SSE 9.2 mph
(SSE 15 kph)
- 10SM
11:33
Overcast
84°F / 29°C 77°F / 25°C 79% 30.01 in
(1016 mb)
S 10.4 mph
(S 17 kph)
- 10SM
10:54
Mostly Cloudy
88°F / 31°C 77°F / 25°C 70% 30.01 in
(1016 mb)
S 8.1 mph
(S 13 kph)
- 10SM
09:54
Mostly Cloudy
84°F / 29°C 77°F / 25°C 79% 30.01 in
(1016 mb)
S 3.5 mph
(S 6 kph)
- 10SM
09:16
Mostly Cloudy
84°F / 29°C 77°F / 25°C 79% 30.01 in
(1016 mb)
S 3.5 mph
(S 6 kph)
- 10SM
08:54
Mostly Cloudy
84°F / 29°C 77°F / 25°C 79% 30.01 in
(1016 mb)
S 4.6 mph
(S 7 kph)
- 10SM
07:54
Partly Cloudy
82°F / 28°C 77°F / 25°C 84% 30.01 in
(1016 mb)
S 5.8 mph
(S 9 kph)
- 10SM
06:54
Partly Cloudy
81°F / 27°C 75°F / 24°C 84% 30.01 in
(1016 mb)
SE 3.5 mph
(SE 6 kph)
- 10SM
05:54
Partly Cloudy
75°F / 24°C 73°F / 23°C 94% 30.01 in
(1016 mb)
SSE 3.5 mph
(SSE 6 kph)
- 9SM
04:54
Partly Cloudy
Fog And Mist
75°F / 24°C 72°F / 22°C 89% 30.01 in
(1016 mb)
Calm - 5SM
03:54
Partly Cloudy
75°F / 24°C 73°F / 23°C 94% 30.01 in
(1016 mb)
Calm - 9SM
02:54
Clear
75°F / 24°C 73°F / 23°C 94% 30.01 in
(1016 mb)
SE 3.5 mph
(SE 6 kph)
- 10SM
01:54
Clear
77°F / 25°C 73°F / 23°C 89% 30.01 in
(1016 mb)
Calm - 10SM
00:54
Clear
77°F / 25°C 75°F / 24°C 94% 30.01 in
(1016 mb)
Calm - 10SM
Time Weather Temperature Dewpoint Humidity Pressure Winds Precip Visibility


Weather for websites

WeatherForYou.com, LLC is not responsible for any damages or problems caused by this service. Current weather conditions are obtained from the closest station including government and personal stations which may have varying degrees of accuracy. Weather forecasts are derived from the NOAA NDFD. Like all things, this site belongs to Jesus Christ... He just trusts us to maintain it. If you have any questions or comments email webmaster@weatherforyou.com

Copyright © 2016, WeatherForYou.com LLC. All rights reserved.